| time (UTC) | temp C | wind direction | speed KPH | gust KPH | rain 1hr cm | rain 24hr cm | rain mn cm | humidity % | barometer mb |
| 20260903111520 | 22 | 160 | 1.6 | 1.6 | 0.00 | 0.00 | 0.00 | 99 | 1018.9 |
| 20260903111017 | 22 | 159 | 0.0 | 1.6 | 0.00 | 0.00 | 0.00 | 99 | 1018.6 |
| 20260903110513 | 22 | 133 | 0.0 | 0.0 | 0.00 | 0.00 | 0.00 | 99 | 1018.7 |
| 20260903110007 | 22 | 159 | 0.0 | 0.0 | 0.00 | 0.00 | 0.00 | 99 | 1018.3 |
| 20260903105501 | 22 | 149 | 1.6 | 3.2 | 0.00 | 0.00 | 0.00 | 99 | 1018.4 |
| 20260903104956 | 22 | 147 | 1.6 | 1.6 | 0.00 | 0.00 | 0.00 | 99 | 1018.5 |
| 20260903104455 | 22 | 161 | 0.0 | 1.6 | 0.00 | 0.00 | 0.00 | 99 | 1018.3 |
| 20260903103952 | 22 | 96 | 0.0 | 1.6 | 0.00 | 0.00 | 0.00 | 99 | 1018.5 |
| 20260903103448 | 22 | 146 | 0.0 | 1.6 | 0.00 | 0.00 | 0.00 | 99 | 1018.4 |
| 20260903102943 | 22 | 145 | 0.0 | 1.6 | 0.00 | 0.00 | 0.00 | 99 | 1018.4 |
| 20260903102439 | 22 | 147 | 1.6 | 3.2 | 0.00 | 0.00 | 0.00 | 99 | 1018.4 |
| 20260903101937 | 22 | 124 | 1.6 | 1.6 | 0.00 | 0.00 | 0.00 | 99 | 1018.5 |
| 20260903101432 | 22 | 95 | 1.6 | 1.6 | 0.00 | 0.00 | 0.00 | 99 | 1018.4 |
| 20260903100928 | 22 | 160 | 0.0 | 0.0 | 0.00 | 0.00 | 0.00 | 99 | 1018.5 |
| 20260903100423 | 22 | 177 | 1.6 | 3.2 | 0.00 | 0.00 | 0.00 | 99 | 1018.4 |
| 20260903095920 | 22 | 213 | 0.0 | 4.8 | 0.00 | 0.00 | 0.00 | 99 | 1018.5 |
| 20260903095415 | 22 | 188 | 1.6 | 3.2 | 0.00 | 0.00 | 0.00 | 99 | 1018.3 |
| 20260903094910 | 23 | 163 | 1.6 | 3.2 | 0.00 | 0.00 | 0.00 | 99 | 1018.5 |
| 20260903094409 | 23 | 151 | 3.2 | 3.2 | 0.00 | 0.00 | 0.00 | 99 | 1018.3 |
| 20260903093905 | 23 | 159 | 0.0 | 1.6 | 0.00 | 0.00 | 0.00 | 99 | 1018.3 |
| 20260903093354 | 23 | 92 | 0.0 | 0.0 | 0.00 | 0.00 | 0.00 | 99 | 1018.4 |
| 20260903092850 | 23 | 156 | 0.0 | 1.6 | 0.00 | 0.00 | 0.00 | 99 | 1018.3 |
| 20260903092344 | 23 | 147 | 0.0 | 0.0 | 0.00 | 0.00 | 0.00 | 99 | 1018.3 |
| 20260903091843 | 23 | 59 | 0.0 | 0.0 | 0.00 | 0.00 | 0.00 | 99 | 1018.3 |
| 20260903091342 | 23 | 184 | 0.0 | 0.0 | 0.00 | 0.00 | 0.00 | 99 | 1018.2 |
| 20260903090837 | 23 | 165 | 0.0 | 0.0 | 0.00 | 0.00 | 0.00 | 99 | 1018.1 |
| 20260903090332 | 23 | 145 | 1.6 | 1.6 | 0.00 | 0.00 | 0.00 | 99 | 1018.2 |
| 20260903085830 | 23 | 152 | 3.2 | 3.2 | 0.00 | 0.00 | 0.00 | 99 | 1017.8 |
| 20260903085330 | 23 | 135 | 1.6 | 3.2 | 0.00 | 0.00 | 0.00 | 98 | 1017.9 |
| 20260903084829 | 23 | 149 | 1.6 | 3.2 | 0.00 | 0.00 | 0.00 | 99 | 1017.8 |
| 20260903084328 | 23 | 95 | 0.0 | 1.6 | 0.00 | 0.00 | 0.00 | 98 | 1017.8 |
| 20260903083823 | 23 | 79 | 0.0 | 1.6 | 0.00 | 0.00 | 0.00 | 98 | 1017.9 |
| 20260903083319 | 23 | 150 | 0.0 | 1.6 | 0.00 | 0.00 | 0.00 | 98 | 1017.8 |
| 20260903082818 | 23 | 157 | 0.0 | 1.6 | 0.00 | 0.00 | 0.00 | 98 | 1017.8 |
| 20260903082313 | 23 | 85 | 0.0 | 0.0 | 0.00 | 0.00 | 0.00 | 98 | 1017.8 |
| 20260903081809 | 23 | 123 | 0.0 | 1.6 | 0.00 | 0.00 | 0.00 | 98 | 1017.9 |
| 20260903081304 | 23 | 85 | 0.0 | 1.6 | 0.00 | 0.00 | 0.00 | 98 | 1018.0 |
| 20260903080801 | 23 | 85 | 0.0 | 1.6 | 0.00 | 0.00 | 0.00 | 98 | 1018.0 |
| 20260903080258 | 23 | 148 | 1.6 | 1.6 | 0.00 | 0.00 | 0.00 | 98 | 1018.1 |
| 20260903075757 | 23 | 161 | 0.0 | 1.6 | 0.00 | 0.00 | 0.00 | 98 | 1018.2 |
| 20260903075252 | 23 | 124 | 1.6 | 1.6 | 0.00 | 0.00 | 0.00 | 98 | 1018.1 |
| 20260903074751 | 23 | 149 | 1.6 | 3.2 | 0.00 | 0.00 | 0.00 | 98 | 1018.1 |
| 20260903074246 | 23 | 153 | 1.6 | 3.2 | 0.00 | 0.00 | 0.00 | 98 | 1018.3 |
| 20260903073741 | 23 | 151 | 1.6 | 3.2 | 0.00 | 0.00 | 0.00 | 98 | 1018.2 |
| 20260903073237 | 23 | 157 | 1.6 | 3.2 | 0.00 | 0.00 | 0.00 | 98 | 1018.1 |
| 20260903072733 | 23 | 170 | 1.6 | 3.2 | 0.00 | 0.00 | 0.00 | 98 | 1018.3 |
| 20260903072229 | 23 | 158 | 1.6 | 3.2 | 0.00 | 0.00 | 0.00 | 98 | 1018.3 |
| 20260903071725 | 23 | 129 | 3.2 | 3.2 | 0.00 | 0.00 | 0.00 | 98 | 1018.2 |
| 20260903071221 | 23 | 108 | 0.0 | 1.6 | 0.00 | 0.00 | 0.00 | 98 | 1018.2 |
| 20260903070720 | 23 | 143 | 0.0 | 1.6 | 0.00 | 0.00 | 0.00 | 98 | 1018.4 |
| 20260903070216 | 23 | 150 | 1.6 | 3.2 | 0.00 | 0.00 | 0.00 | 98 | 1018.2 |
| 20260903065711 | 23 | 154 | 0.0 | 1.6 | 0.00 | 0.00 | 0.00 | 98 | 1018.3 |
| 20260903065205 | 23 | 163 | 3.2 | 3.2 | 0.00 | 0.00 | 0.00 | 98 | 1018.2 |
| 20260903064704 | 23 | 168 | 1.6 | 3.2 | 0.00 | 0.00 | 0.00 | 98 | 1018.4 |
| 20260903064200 | 23 | 210 | 0.0 | 0.0 | 0.00 | 0.00 | 0.00 | 98 | 1018.4 |
| 20260903063655 | 23 | 245 | 1.6 | 1.6 | 0.00 | 0.00 | 0.00 | 97 | 1018.4 |
| 20260903063149 | 23 | 158 | 1.6 | 3.2 | 0.00 | 0.00 | 0.00 | 97 | 1018.5 |
| 20260903062646 | 23 | 159 | 0.0 | 0.0 | 0.00 | 0.00 | 0.00 | 97 | 1018.4 |
| 20260903062140 | 23 | 159 | 0.0 | 0.0 | 0.00 | 0.00 | 0.00 | 97 | 1018.5 |
| 20260903061635 | 23 | 171 | 0.0 | 1.6 | 0.00 | 0.00 | 0.00 | 97 | 1018.4 |
| 20260903061134 | 23 | 151 | 1.6 | 3.2 | 0.00 | 0.00 | 0.00 | 97 | 1018.6 |
| 20260903060630 | 23 | 163 | 0.0 | 1.6 | 0.00 | 0.00 | 0.00 | 97 | 1018.6 |
| 20260903060125 | 23 | 184 | 0.0 | 0.0 | 0.00 | 0.00 | 0.00 | 97 | 1018.4 |
| 20260903055622 | 23 | 184 | 0.0 | 0.0 | 0.00 | 0.00 | 0.00 | 97 | 1018.5 |
| 20260903055121 | 23 | 185 | 0.0 | 3.2 | 0.00 | 0.00 | 0.00 | 97 | 1018.6 |
| 20260903054616 | 24 | 147 | 3.2 | 3.2 | 0.00 | 0.00 | 0.00 | 96 | 1018.7 |
| 20260903054112 | 24 | 142 | 1.6 | 1.6 | 0.00 | 0.00 | 0.00 | 96 | 1018.8 |
| 20260903053607 | 24 | 149 | 1.6 | 1.6 | 0.00 | 0.00 | 0.00 | 95 | 1019.0 |
| 20260903053103 | 24 | 138 | 1.6 | 4.8 | 0.00 | 0.00 | 0.00 | 95 | 1018.8 |
| 20260903052559 | 24 | 172 | 1.6 | 3.2 | 0.00 | 0.00 | 0.00 | 95 | 1018.9 |
| 20260903052054 | 24 | 176 | 3.2 | 3.2 | 0.00 | 0.00 | 0.00 | 95 | 1018.8 |
| 20260903051549 | 24 | 252 | 1.6 | 3.2 | 0.00 | 0.00 | 0.00 | 95 | 1018.8 |
| 20260903051044 | 24 | 219 | 1.6 | 1.6 | 0.00 | 0.00 | 0.00 | 95 | 1018.8 |
| 20260903050544 | 24 | 162 | 0.0 | 4.8 | 0.00 | 0.00 | 0.00 | 95 | 1018.8 |
| 20260903050039 | 24 | 209 | 0.0 | 3.2 | 0.00 | 0.00 | 0.00 | 95 | 1018.9 |
| 20260903045538 | 24 | 181 | 0.0 | 3.2 | 0.00 | 0.00 | 0.00 | 95 | 1018.9 |
| 20260903045036 | 25 | 186 | 1.6 | 3.2 | 0.00 | 0.00 | 0.00 | 94 | 1018.7 |
| 20260903044531 | 25 | 138 | 3.2 | 3.2 | 0.00 | 0.00 | 0.00 | 94 | 1018.9 |
| 20260903044026 | 25 | 162 | 1.6 | 3.2 | 0.00 | 0.00 | 0.00 | 94 | 1019.0 |
| 20260903043522 | 25 | 168 | 1.6 | 3.2 | 0.00 | 0.00 | 0.00 | 94 | 1018.9 |
| 20260903043022 | 25 | 272 | 0.0 | 3.2 | 0.00 | 0.00 | 0.00 | 95 | 1018.9 |
| 20260903042522 | 25 | 203 | 1.6 | 3.2 | 0.00 | 0.00 | 0.00 | 95 | 1018.9 |
| 20260903042018 | 25 | 190 | 1.6 | 1.6 | 0.00 | 0.00 | 0.00 | 95 | 1018.9 |
| 20260903041514 | 25 | 220 | 0.0 | 0.0 | 0.00 | 0.00 | 0.00 | 95 | 1018.8 |
| 20260903041009 | 25 | 266 | 0.0 | 0.0 | 0.00 | 0.00 | 0.00 | 96 | 1018.7 |
| 20260903040508 | 25 | 92 | 0.0 | 1.6 | 0.00 | 0.00 | 0.00 | 96 | 1018.4 |
| 20260903040008 | 25 | 187 | 0.0 | 0.0 | 0.00 | 0.00 | 0.00 | 96 | 1018.4 |
| 20260903035500 | 25 | 145 | 3.2 | 3.2 | 0.00 | 0.00 | 0.00 | 96 | 1018.6 |
| 20260903034955 | 25 | 177 | 0.0 | 0.0 | 0.00 | 0.00 | 0.00 | 96 | 1018.8 |
| 20260903034450 | 25 | 156 | 0.0 | 1.6 | 0.00 | 0.00 | 0.00 | 96 | 1018.7 |
| 20260903033949 | 25 | 147 | 0.0 | 1.6 | 0.00 | 0.00 | 0.00 | 96 | 1018.4 |
| 20260903033445 | 25 | 223 | 0.0 | 3.2 | 0.00 | 0.00 | 0.00 | 95 | 1018.4 |
| 20260903032940 | 25 | 134 | 0.0 | 0.0 | 0.00 | 0.00 | 0.00 | 95 | 1018.2 |
| 20260903032436 | 25 | 154 | 0.0 | 0.0 | 0.00 | 0.00 | 0.00 | 95 | 1018.3 |
| 20260903031931 | 25 | 148 | 1.6 | 3.2 | 0.00 | 0.00 | 0.00 | 95 | 1018.2 |
| 20260903031431 | 25 | 144 | 1.6 | 1.6 | 0.00 | 0.00 | 0.00 | 95 | 1018.5 |
| 20260903030926 | 25 | 67 | 0.0 | 0.0 | 0.00 | 0.00 | 0.00 | 95 | 1018.6 |
| 20260903030422 | 25 | 136 | 0.0 | 1.6 | 0.00 | 0.00 | 0.00 | 95 | 1018.4 |
| 20260903025918 | 25 | 159 | 0.0 | 0.0 | 0.00 | 0.00 | 0.00 | 95 | 1018.4 |
| 20260903025413 | 25 | 127 | 1.6 | 3.2 | 0.00 | 0.00 | 0.00 | 94 | 1018.4 |
| 20260903024908 | 25 | 147 | 0.0 | 0.0 | 0.00 | 0.00 | 0.00 | 94 | 1018.7 |
| 20260903024402 | 25 | 127 | 1.6 | 1.6 | 0.00 | 0.00 | 0.00 | 94 | 1018.5 |
| 20260903023857 | 25 | 142 | 1.6 | 1.6 | 0.00 | 0.00 | 0.00 | 94 | 1018.7 |
| 20260903023353 | 25 | 165 | 0.0 | 0.0 | 0.00 | 0.00 | 0.00 | 94 | 1018.6 |
| 20260903022848 | 25 | 79 | 0.0 | 1.6 | 0.00 | 0.00 | 0.00 | 93 | 1018.6 |
| 20260903022347 | 25 | 125 | 1.6 | 3.2 | 0.00 | 0.00 | 0.00 | 93 | 1018.8 |
| 20260903021846 | 25 | 173 | 1.6 | 3.2 | 0.00 | 0.00 | 0.00 | 92 | 1018.7 |
| 20260903021342 | 25 | 170 | 1.6 | 3.2 | 0.00 | 0.00 | 0.00 | 92 | 1018.7 |
| 20260903020841 | 25 | 187 | 0.0 | 1.6 | 0.00 | 0.00 | 0.00 | 92 | 1018.9 |
| 20260903020337 | 25 | 184 | 1.6 | 3.2 | 0.00 | 0.00 | 0.00 | 92 | 1018.9 |
| 20260903015831 | 25 | 174 | 1.6 | 3.2 | 0.00 | 0.00 | 0.00 | 91 | 1019.0 |
| 20260903015326 | 25 | 150 | 0.0 | 1.6 | 0.00 | 0.00 | 0.00 | 91 | 1019.1 |
| 20260903014822 | 25 | 203 | 1.6 | 3.2 | 0.00 | 0.00 | 0.00 | 91 | 1019.0 |
| 20260903014316 | 25 | 187 | 0.0 | 1.6 | 0.00 | 0.00 | 0.00 | 91 | 1019.1 |
| 20260903013811 | 26 | 172 | 0.0 | 1.6 | 0.00 | 0.00 | 0.00 | 91 | 1019.0 |
| 20260903013309 | 26 | 140 | 0.0 | 3.2 | 0.00 | 0.00 | 0.00 | 91 | 1019.0 |
| 20260903012808 | 26 | 158 | 1.6 | 1.6 | 0.00 | 0.00 | 0.00 | 90 | 1019.1 |
| 20260903012258 | 26 | 155 | 1.6 | 1.6 | 0.00 | 0.00 | 0.00 | 89 | 1019.0 |
| 20260903011757 | 26 | 178 | 1.6 | 3.2 | 0.00 | 0.00 | 0.00 | 89 | 1019.2 |
| 20260903011256 | 26 | 202 | 3.2 | 3.2 | 0.00 | 0.00 | 0.00 | 88 | 1019.0 |
| 20260903010752 | 26 | 123 | 0.0 | 3.2 | 0.00 | 0.00 | 0.00 | 87 | 1018.9 |
| 20260903010247 | 27 | 143 | 0.0 | 1.6 | 0.00 | 0.00 | 0.00 | 87 | 1018.7 |
| 20260903005746 | 27 | 138 | 1.6 | 3.2 | 0.00 | 0.00 | 0.00 | 86 | 1018.9 |
| 20260903005241 | 27 | 159 | 0.0 | 3.2 | 0.00 | 0.00 | 0.00 | 86 | 1019.0 |
| 20260903004736 | 27 | 132 | 1.6 | 3.2 | 0.00 | 0.00 | 0.00 | 85 | 1018.6 |
| 20260903004232 | 27 | 235 | 0.0 | 0.0 | 0.00 | 0.00 | 0.00 | 86 | 1018.8 |
| 20260903003727 | 27 | 162 | 1.6 | 3.2 | 0.00 | 0.00 | 0.00 | 86 | 1018.6 |
| 20260903003223 | 27 | 272 | 0.0 | 1.6 | 0.00 | 0.00 | 0.00 | 86 | 1018.5 |
| 20260903002717 | 27 | 133 | 1.6 | 3.2 | 0.00 | 0.00 | 0.00 | 85 | 1018.5 |
| 20260903002211 | 27 | 119 | 3.2 | 3.2 | 0.00 | 0.00 | 0.00 | 85 | 1018.4 |
| 20260903001707 | 27 | 159 | 0.0 | 0.0 | 0.00 | 0.00 | 0.00 | 82 | 1018.5 |
| 20260903001201 | 27 | 232 | 0.0 | 0.0 | 0.00 | 0.00 | 0.00 | 82 | 1018.7 |
| 20260903000657 | 27 | 159 | 0.0 | 0.0 | 0.00 | 0.00 | 0.00 | 82 | 1018.6 |
| 20260903000155 | 28 | 123 | 1.6 | 1.6 | 0.00 | 0.00 | 0.00 | 81 | 1018.5 |
| 20260902235654 | 28 | 133 | 1.6 | 3.2 | 0.00 | 0.00 | 0.00 | 80 | 1018.7 |
| 20260902235144 | 28 | 166 | 1.6 | 1.6 | 0.00 | 0.00 | 0.00 | 80 | 1018.5 |
| 20260902234643 | 28 | 111 | 1.6 | 3.2 | 0.00 | 0.00 | 0.00 | 80 | 1018.5 |
| 20260902234142 | 28 | 105 | 3.2 | 4.8 | 0.00 | 0.00 | 0.00 | 79 | 1018.4 |
| 20260902233638 | 28 | 127 | 3.2 | 3.2 | 0.00 | 0.00 | 0.00 | 79 | 1018.3 |
| 20260902233137 | 28 | 242 | 0.0 | 0.0 | 0.00 | 0.00 | 0.00 | 80 | 1018.1 |
| 20260902232636 | 28 | 125 | 3.2 | 3.2 | 0.00 | 0.00 | 0.00 | 80 | 1018.6 |
| 20260902232136 | 29 | 129 | 1.6 | 3.2 | 0.00 | 0.00 | 0.00 | 79 | 1018.5 |
| 20260902231636 | 29 | 94 | 1.6 | 1.6 | 0.00 | 0.00 | 0.00 | 78 | 1018.8 |
| 20260902231130 | 29 | 20 | 1.6 | 3.2 | 0.00 | 0.00 | 0.00 | 78 | 1018.8 |
| 20260902230626 | 29 | 55 | 0.0 | 0.0 | 0.00 | 0.00 | 0.00 | 78 | 1019.2 |
| 20260902230124 | 29 | 229 | 0.0 | 4.8 | 0.00 | 0.00 | 0.00 | 77 | 1019.3 |
| 20260902225620 | 29 | 190 | 3.2 | 3.2 | 0.00 | 0.00 | 0.00 | 78 | 1019.0 |
| 20260902225119 | 28 | 232 | 0.0 | 3.2 | 0.00 | 0.00 | 0.00 | 78 | 1018.7 |
| 20260902224618 | 28 | 248 | 0.0 | 1.6 | 0.00 | 0.00 | 0.00 | 78 | 1018.6 |
| 20260902224114 | 28 | 147 | 0.0 | 3.2 | 0.00 | 0.00 | 0.00 | 77 | 1018.5 |
| 20260902223610 | 28 | 178 | 0.0 | 3.2 | 0.00 | 0.00 | 0.00 | 76 | 1019.0 |
| 20260902223109 | 29 | 358 | 3.2 | 3.2 | 0.00 | 0.00 | 0.00 | 74 | 1019.0 |
| 20260902222608 | 29 | 340 | 0.0 | 1.6 | 0.00 | 0.00 | 0.00 | 73 | 1019.1 |
| 20260902222107 | 29 | 119 | 0.0 | 0.0 | 0.00 | 0.00 | 0.00 | 72 | 1019.2 |
| 20260902221601 | 29 | 194 | 0.0 | 1.6 | 0.00 | 0.00 | 0.00 | 70 | 1019.3 |
| 20260902221056 | 29 | 140 | 1.6 | 3.2 | 0.00 | 0.00 | 0.00 | 69 | 1019.3 |
| 20260902220552 | 30 | 57 | 1.6 | 4.8 | 0.00 | 0.00 | 0.00 | 69 | 1018.8 |
| 20260902220046 | 30 | 141 | 3.2 | 3.2 | 0.00 | 0.00 | 0.00 | 67 | 1018.7 |
| 20260902215542 | 30 | 35 | 1.6 | 1.6 | 0.00 | 0.00 | 0.00 | 66 | 1018.8 |
| 20260902215037 | 30 | 255 | 3.2 | 4.8 | 0.00 | 0.00 | 0.00 | 65 | 1019.0 |
| 20260902214532 | 30 | 20 | 3.2 | 4.8 | 0.00 | 0.00 | 0.00 | 65 | 1018.9 |
| 20260902214031 | 30 | 329 | 0.0 | 4.8 | 0.00 | 0.00 | 0.00 | 65 | 1018.8 |
| 20260902213527 | 31 | 226 | 1.6 | 9.7 | 0.00 | 0.00 | 0.00 | 64 | 1018.9 |
| 20260902213026 | 31 | 227 | 11.3 | 17.7 | 0.00 | 0.00 | 0.00 | 62 | 1018.8 |
| 20260902212522 | 31 | 155 | 6.4 | 8.0 | 0.00 | 0.00 | 0.00 | 62 | 1018.8 |
| 20260902212018 | 32 | 210 | 8.0 | 9.7 | 0.00 | 0.00 | 0.00 | 61 | 1018.6 |
| 20260902211514 | 32 | 26 | 1.6 | 8.0 | 0.00 | 0.00 | 0.00 | 63 | 1018.5 |
| 20260902211009 | 32 | 78 | 3.2 | 8.0 | 0.00 | 0.00 | 0.00 | 62 | 1018.5 |
| 20260902210508 | 32 | 176 | 1.6 | 8.0 | 0.00 | 0.00 | 0.00 | 62 | 1018.5 |
| 20260902210008 | 33 | 299 | 0.0 | 6.4 | 0.00 | 0.00 | 0.00 | 62 | 1018.4 |
| 20260902205502 | 33 | 277 | 3.2 | 4.8 | 0.00 | 0.00 | 0.00 | 60 | 1018.2 |
| 20260902204958 | 34 | 247 | 4.8 | 6.4 | 0.00 | 0.00 | 0.00 | 56 | 1018.5 |
| 20260902204457 | 34 | 282 | 6.4 | 16.1 | 0.00 | 0.00 | 0.00 | 56 | 1018.3 |
| 20260902203952 | 34 | 293 | 3.2 | 3.2 | 0.00 | 0.00 | 0.00 | 57 | 1018.4 |
| 20260902203448 | 35 | 25 | 4.8 | 12.9 | 0.00 | 0.00 | 0.00 | 55 | 1018.6 |
| 20260902202946 | 35 | 218 | 4.8 | 8.0 | 0.00 | 0.00 | 0.00 | 54 | 1018.5 |
| 20260902202443 | 35 | 344 | 3.2 | 8.0 | 0.00 | 0.00 | 0.00 | 54 | 1018.3 |
| 20260902201939 | 35 | 270 | 3.2 | 4.8 | 0.00 | 0.00 | 0.00 | 53 | 1018.3 |
| 20260902201434 | 35 | 336 | 3.2 | 6.4 | 0.00 | 0.00 | 0.00 | 52 | 1018.5 |
| 20260902200934 | 35 | 285 | 3.2 | 3.2 | 0.00 | 0.00 | 0.00 | 51 | 1018.7 |
| 20260902200430 | 35 | 315 | 0.0 | 3.2 | 0.00 | 0.00 | 0.00 | 51 | 1018.6 |
| 20260902195925 | 35 | 259 | 1.6 | 11.3 | 0.00 | 0.00 | 0.00 | 49 | 1018.5 |
| 20260902195420 | 35 | 281 | 8.0 | 9.7 | 0.00 | 0.00 | 0.00 | 49 | 1018.7 |
| 20260902194914 | 35 | 277 | 4.8 | 11.3 | 0.00 | 0.00 | 0.00 | 50 | 1018.6 |
| 20260902194414 | 35 | 266 | 9.7 | 9.7 | 0.00 | 0.00 | 0.00 | 51 | 1018.4 |
| 20260902193909 | 35 | 202 | 1.6 | 3.2 | 0.00 | 0.00 | 0.00 | 52 | 1018.6 |
| 20260902193405 | 35 | 265 | 0.0 | 4.8 | 0.00 | 0.00 | 0.00 | 50 | 1018.5 |
| 20260902192903 | 35 | 186 | 1.6 | 9.7 | 0.00 | 0.00 | 0.00 | 51 | 1018.3 |
| 20260902192403 | 35 | 243 | 8.0 | 8.0 | 0.00 | 0.00 | 0.00 | 51 | 1018.4 |
| 20260902191856 | 35 | 320 | 3.2 | 6.4 | 0.00 | 0.00 | 0.00 | 50 | 1018.5 |
| 20260902191352 | 35 | 159 | 0.0 | 4.8 | 0.00 | 0.00 | 0.00 | 52 | 1018.7 |
| 20260902190847 | 35 | 174 | 4.8 | 8.0 | 0.00 | 0.00 | 0.00 | 52 | 1018.4 |
| 20260902190347 | 35 | 9 | 4.8 | 4.8 | 0.00 | 0.00 | 0.00 | 52 | 1018.6 |
| 20260902185843 | 35 | 331 | 3.2 | 4.8 | 0.00 | 0.00 | 0.00 | 52 | 1018.8 |
| 20260902185338 | 34 | 261 | 1.6 | 4.8 | 0.00 | 0.00 | 0.00 | 54 | 1018.9 |
| 20260902184834 | 34 | 272 | 0.0 | 1.6 | 0.00 | 0.00 | 0.00 | 56 | 1018.8 |
| 20260902184329 | 34 | 157 | 0.0 | 4.8 | 0.00 | 0.00 | 0.00 | 54 | 1018.9 |
| 20260902183825 | 34 | 194 | 3.2 | 8.0 | 0.00 | 0.00 | 0.00 | 55 | 1019.1 |
| 20260902183321 | 35 | 281 | 6.4 | 9.7 | 0.00 | 0.00 | 0.00 | 53 | 1019.2 |
| 20260902182817 | 35 | 190 | 1.6 | 3.2 | 0.00 | 0.00 | 0.00 | 54 | 1019.2 |
| 20260902182313 | 35 | 203 | 0.0 | 9.7 | 0.00 | 0.00 | 0.00 | 54 | 1019.1 |
| 20260902181809 | 35 | 201 | 1.6 | 8.0 | 0.00 | 0.00 | 0.00 | 53 | 1019.2 |
| 20260902181309 | 35 | 345 | 3.2 | 4.8 | 0.00 | 0.00 | 0.00 | 53 | 1019.0 |
| 20260902180804 | 35 | 148 | 3.2 | 8.0 | 0.00 | 0.00 | 0.00 | 54 | 1019.1 |
| 20260902180300 | 35 | 268 | 1.6 | 6.4 | 0.00 | 0.00 | 0.00 | 54 | 1019.4 |
| 20260902175755 | 35 | 271 | 3.2 | 6.4 | 0.00 | 0.00 | 0.00 | 53 | 1019.3 |
| 20260902175250 | 35 | 230 | 3.2 | 8.0 | 0.00 | 0.00 | 0.00 | 53 | 1019.4 |
| 20260902174746 | 35 | 252 | 3.2 | 8.0 | 0.00 | 0.00 | 0.00 | 51 | 1019.3 |
| 20260902174242 | 34 | 279 | 4.8 | 4.8 | 0.00 | 0.00 | 0.00 | 54 | 1019.4 |
| 20260902173737 | 34 | 151 | 3.2 | 4.8 | 0.00 | 0.00 | 0.00 | 52 | 1019.3 |
| 20260902173237 | 34 | 291 | 4.8 | 8.0 | 0.00 | 0.00 | 0.00 | 54 | 1019.4 |
| 20260902172732 | 34 | 64 | 0.0 | 8.0 | 0.00 | 0.00 | 0.00 | 53 | 1019.2 |
| 20260902172232 | 34 | 243 | 6.4 | 8.0 | 0.00 | 0.00 | 0.00 | 54 | 1019.1 |
| 20260902171727 | 33 | 207 | 8.0 | 8.0 | 0.00 | 0.00 | 0.00 | 53 | 1019.4 |
| 20260902171222 | 33 | 163 | 12.9 | 14.5 | 0.00 | 0.00 | 0.00 | 53 | 1019.3 |
| 20260902170718 | 33 | 249 | 6.4 | 9.7 | 0.00 | 0.00 | 0.00 | 54 | 1019.3 |
| 20260902170214 | 34 | 150 | 1.6 | 8.0 | 0.00 | 0.00 | 0.00 | 54 | 1019.2 |
| 20260902165713 | 33 | 217 | 3.2 | 4.8 | 0.00 | 0.00 | 0.00 | 54 | 1019.3 |
| 20260902165209 | 33 | 230 | 6.4 | 6.4 | 0.00 | 0.00 | 0.00 | 54 | 1019.2 |
| 20260902164709 | 33 | 202 | 8.0 | 9.7 | 0.00 | 0.00 | 0.00 | 54 | 1019.3 |
| 20260902164203 | 33 | 182 | 0.0 | 4.8 | 0.00 | 0.00 | 0.00 | 54 | 1019.4 |
| 20260902163658 | 33 | 211 | 0.0 | 6.4 | 0.00 | 0.00 | 0.00 | 54 | 1019.3 |
| 20260902163157 | 33 | 232 | 4.8 | 8.0 | 0.00 | 0.00 | 0.00 | 55 | 1019.4 |
| 20260902162656 | 33 | 127 | 4.8 | 4.8 | 0.00 | 0.00 | 0.00 | 55 | 1019.3 |
| 20260902162150 | 33 | 236 | 0.0 | 8.0 | 0.00 | 0.00 | 0.00 | 56 | 1019.3 |
| 20260902161646 | 33 | 127 | 1.6 | 6.4 | 0.00 | 0.00 | 0.00 | 56 | 1019.6 |
| 20260902161141 | 33 | 252 | 3.2 | 4.8 | 0.00 | 0.00 | 0.00 | 56 | 1019.1 |
| 20260902160638 | 33 | 247 | 0.0 | 6.4 | 0.00 | 0.00 | 0.00 | 56 | 1019.5 |
| 20260902160132 | 32 | 267 | 1.6 | 6.4 | 0.00 | 0.00 | 0.00 | 58 | 1019.5 |
| 20260902155631 | 33 | 30 | 0.0 | 4.8 | 0.00 | 0.00 | 0.00 | 57 | 1019.6 |
| 20260902155130 | 33 | 206 | 0.0 | 8.0 | 0.00 | 0.00 | 0.00 | 57 | 1019.5 |
| 20260902154625 | 33 | 140 | 3.2 | 4.8 | 0.00 | 0.00 | 0.00 | 59 | 1019.5 |
| 20260902154120 | 33 | 304 | 0.0 | 3.2 | 0.00 | 0.00 | 0.00 | 58 | 1019.6 |
| 20260902153619 | 33 | 147 | 3.2 | 4.8 | 0.00 | 0.00 | 0.00 | 61 | 1019.6 |
| 20260902153114 | 32 | 269 | 3.2 | 3.2 | 0.00 | 0.00 | 0.00 | 59 | 1019.7 |
| 20260902152611 | 32 | 287 | 0.0 | 6.4 | 0.00 | 0.00 | 0.00 | 59 | 1019.6 |
| 20260902152105 | 32 | 269 | 3.2 | 8.0 | 0.00 | 0.00 | 0.00 | 59 | 1019.6 |
| 20260902151601 | 32 | 226 | 3.2 | 3.2 | 0.00 | 0.00 | 0.00 | 60 | 1019.7 |
| 20260902151100 | 32 | 282 | 4.8 | 8.0 | 0.00 | 0.00 | 0.00 | 61 | 1019.6 |
| 20260902150556 | 32 | 174 | 1.6 | 6.4 | 0.00 | 0.00 | 0.00 | 60 | 1019.8 |
| 20260902150051 | 32 | 273 | 0.0 | 3.2 | 0.00 | 0.00 | 0.00 | 61 | 1019.9 |
| 20260902145546 | 32 | 262 | 6.4 | 6.4 | 0.00 | 0.00 | 0.00 | 62 | 1019.7 |
| 20260902145045 | 32 | 154 | 0.0 | 3.2 | 0.00 | 0.00 | 0.00 | 61 | 1019.7 |
| 20260902144537 | 31 | 196 | 4.8 | 6.4 | 0.00 | 0.00 | 0.00 | 61 | 1019.9 |
| 20260902144037 | 31 | 179 | 3.2 | 3.2 | 0.00 | 0.00 | 0.00 | 62 | 1019.9 |
| 20260902143538 | 31 | 216 | 3.2 | 8.0 | 0.00 | 0.00 | 0.00 | 61 | 1020.1 |
| 20260902143034 | 31 | 152 | 0.0 | 1.6 | 0.00 | 0.00 | 0.00 | 62 | 1019.8 |
| 20260902142529 | 32 | 248 | 3.2 | 4.8 | 0.00 | 0.00 | 0.00 | 61 | 1019.7 |
| 20260902142024 | 32 | 275 | 4.8 | 8.0 | 0.00 | 0.00 | 0.00 | 63 | 1019.7 |
| 20260902141524 | 31 | 239 | 4.8 | 6.4 | 0.00 | 0.00 | 0.00 | 64 | 1019.7 |
| 20260902141019 | 31 | 175 | 1.6 | 3.2 | 0.00 | 0.00 | 0.00 | 65 | 1019.7 |
| 20260902140514 | 31 | 259 | 0.0 | 6.4 | 0.00 | 0.00 | 0.00 | 66 | 1019.7 |
| 20260902140010 | 30 | 92 | 0.0 | 3.2 | 0.00 | 0.00 | 0.00 | 68 | 1019.5 |
| 20260902135504 | 30 | 260 | 3.2 | 3.2 | 0.00 | 0.00 | 0.00 | 71 | 1019.7 |
| 20260902135003 | 28 | 182 | 0.0 | 4.8 | 0.00 | 0.00 | 0.00 | 73 | 1019.5 |
| 20260902134459 | 28 | 162 | 3.2 | 3.2 | 0.00 | 0.00 | 0.00 | 76 | 1019.6 |
| 20260902133954 | 28 | 209 | 1.6 | 3.2 | 0.00 | 0.00 | 0.00 | 78 | 1019.4 |
| 20260902133448 | 27 | 176 | 0.0 | 1.6 | 0.00 | 0.00 | 0.00 | 81 | 1019.5 |
| 20260902132943 | 27 | 152 | 0.0 | 3.2 | 0.00 | 0.00 | 0.00 | 80 | 1019.5 |
| 20260902132439 | 27 | 137 | 0.0 | 3.2 | 0.00 | 0.00 | 0.00 | 80 | 1019.5 |
| 20260902131933 | 27 | 250 | 3.2 | 4.8 | 0.00 | 0.00 | 0.00 | 78 | 1019.2 |
| 20260902131430 | 27 | 203 | 0.0 | 1.6 | 0.00 | 0.00 | 0.00 | 81 | 1019.4 |
| 20260902130929 | 26 | 244 | 3.2 | 4.8 | 0.00 | 0.00 | 0.00 | 84 | 1019.3 |
| 20260902130425 | 26 | 210 | 0.0 | 0.0 | 0.00 | 0.00 | 0.00 | 87 | 1019.5 |
| 20260902125920 | 25 | 223 | 0.0 | 1.6 | 0.00 | 0.00 | 0.00 | 87 | 1019.6 |
| 20260902125416 | 25 | 166 | 1.6 | 3.2 | 0.00 | 0.00 | 0.00 | 89 | 1019.4 |
| 20260902124912 | 25 | 106 | 0.0 | 1.6 | 0.00 | 0.00 | 0.00 | 90 | 1019.6 |
| 20260902124408 | 25 | 158 | 0.0 | 1.6 | 0.00 | 0.00 | 0.00 | 91 | 1019.3 |
| 20260902123903 | 24 | 165 | 0.0 | 1.6 | 0.00 | 0.00 | 0.00 | 93 | 1019.5 |
| 20260902123359 | 24 | 133 | 1.6 | 3.2 | 0.00 | 0.00 | 0.00 | 95 | 1019.4 |
| 20260902122857 | 24 | 105 | 0.0 | 0.0 | 0.00 | 0.00 | 0.00 | 96 | 1019.4 |
| 20260902122353 | 23 | 105 | 0.0 | 0.0 | 0.00 | 0.00 | 0.00 | 96 | 1019.1 |
| 20260902121848 | 23 | 119 | 0.0 | 1.6 | 0.00 | 0.00 | 0.00 | 95 | 1019.4 |
| 20260902121343 | 23 | 143 | 0.0 | 0.0 | 0.00 | 0.00 | 0.00 | 95 | 1019.2 |
| 20260902120838 | 23 | 191 | 0.0 | 1.6 | 0.00 | 0.00 | 0.00 | 95 | 1019.1 |
| 20260902120334 | 23 | 179 | 0.0 | 1.6 | 0.00 | 0.00 | 0.00 | 95 | 1019.2 |
| 20260902115828 | 23 | 191 | 0.0 | 1.6 | 0.00 | 0.00 | 0.00 | 95 | 1019.2 |
| 20260902115325 | 23 | 186 | 0.0 | 3.2 | 0.00 | 0.00 | 0.00 | 96 | 1019.3 |
| 20260902114821 | 23 | 204 | 0.0 | 1.6 | 0.00 | 0.00 | 0.00 | 96 | 1019.3 |
| 20260902114317 | 23 | 193 | 1.6 | 3.2 | 0.00 | 0.00 | 0.00 | 96 | 1019.2 |
| 20260902113816 | 23 | 176 | 1.6 | 3.2 | 0.00 | 0.00 | 0.00 | 96 | 1019.2 |
| 20260902113312 | 23 | 185 | 0.0 | 3.2 | 0.00 | 0.00 | 0.00 | 96 | 1019.2 |
| 20260902112812 | 23 | 162 | 0.0 | 1.6 | 0.00 | 0.00 | 0.00 | 96 | 1019.5 |
| 20260902112309 | 23 | 147 | 3.2 | 3.2 | 0.00 | 0.00 | 0.00 | 96 | 1019.5 |
| 20260902111804 | 23 | 168 | 0.0 | 1.6 | 0.00 | 0.00 | 0.00 | 95 | 1019.3 |